FAB2856 SBBE-SBAN

Flight info

Callsign FAB2856
Flight time 2h 16m
Altitude FL360
Route SBBE ILSAT ESLOS SBAN
Aircraft E390/?-VGDW/C

Departure

Time 2026-04-23 14:10
Airport Val de Cans/Júlio Cezar Ribeiro International Airport (SBBE)

Arrival

Time 2026-04-23 16:26
Airport Anápolis Airbase (SBAN)
Time Latitude Longitude Altitude Speed Heading
2026-04-23 14:03 -1.38328 -48.48751 69 ft 0 kts
2026-04-23 14:05 -1.38334 -48.48751 69 ft 2 kts
2026-04-23 14:05 -1.38352 -48.48751 69 ft 3 kts
2026-04-23 14:05 -1.38346 -48.48743 69 ft 9 kts 47°
2026-04-23 14:06 -1.38374 -48.48709 69 ft 14 kts 159°
2026-04-23 14:06 -1.38414 -48.48659 69 ft 6 kts 99°
2026-04-23 14:06 -1.38424 -48.48616 69 ft 7 kts 110°
2026-04-23 14:06 -1.38456 -48.48566 69 ft 10 kts 134°
2026-04-23 14:07 -1.38515 -48.48514 69 ft 13 kts 145°
2026-04-23 14:07 -1.38698 -48.48488 69 ft 0 kts 178°
2026-04-23 14:08 -1.38738 -48.48486 69 ft 13 kts 169°
2026-04-23 14:08 -1.38747 -48.48444 69 ft 5 kts 47°
2026-04-23 14:08 -1.38745 -48.48443 69 ft 0 kts 44°
2026-04-23 14:09 -1.38727 -48.48425 69 ft 22 kts 45°
2026-04-23 14:09 -1.38423 -48.48121 69 ft 104 kts 45°
2026-04-23 14:09 -1.37719 -48.47408 105 ft 179 kts 45°
2026-04-23 14:09 -1.36754 -48.46428 631 ft 217 kts 45°
2026-04-23 14:10 -1.35652 -48.45311 999 ft 228 kts 45°
2026-04-23 14:10 -1.34787 -48.44157 1298 ft 236 kts 65°
2026-04-23 14:11 -1.34583 -48.43402 1485 ft 240 kts 82°
2026-04-23 14:11 -1.34866 -48.41753 1875 ft 249 kts 115°
2026-04-23 14:11 -1.36032 -48.40484 2258 ft 254 kts 148°
2026-04-23 14:12 -1.37720 -48.40013 2656 ft 256 kts 176°
2026-04-23 14:12 -1.39506 -48.40121 3054 ft 259 kts 187°
2026-04-23 14:12 -1.41280 -48.40417 3430 ft 259 kts 191°
2026-04-23 14:12 -1.43044 -48.40765 3801 ft 259 kts 192°
2026-04-23 14:13 -1.44814 -48.41121 4175 ft 260 kts 192°
2026-04-23 14:13 -1.46596 -48.41469 4550 ft 263 kts 192°
2026-04-23 14:13 -1.48396 -48.41803 4926 ft 265 kts 192°
2026-04-23 14:13 -1.50216 -48.42121 5302 ft 267 kts 192°
2026-04-23 14:14 -1.52059 -48.42383 5679 ft 269 kts 189°
2026-04-23 14:14 -1.53931 -48.42519 6057 ft 271 kts 185°
2026-04-23 14:14 -1.55822 -48.42513 6436 ft 273 kts 182°
2026-04-23 14:14 -1.57714 -48.42382 6813 ft 274 kts 179°
2026-04-23 14:15 -1.59602 -48.42155 7188 ft 274 kts 176°
2026-04-23 14:15 -1.61484 -48.41855 7562 ft 275 kts 174°
2026-04-23 14:15 -1.63369 -48.41502 7937 ft 277 kts 173°
2026-04-23 14:15 -1.65252 -48.41112 8312 ft 278 kts 172°
2026-04-23 14:16 -1.67144 -48.40693 8688 ft 281 kts 171°
2026-04-23 14:16 -1.69092 -48.40246 9079 ft 296 kts 171°
2026-04-23 14:16 -1.71130 -48.39768 9461 ft 305 kts 171°
2026-04-23 14:16 -1.73207 -48.39269 9839 ft 310 kts 170°
2026-04-23 14:17 -1.75313 -48.38754 10217 ft 314 kts 170°
2026-04-23 14:17 -1.77443 -48.38229 10593 ft 317 kts 170°
2026-04-23 14:17 -1.79591 -48.37697 10969 ft 320 kts 170°
2026-04-23 14:17 -1.81754 -48.37159 11345 ft 322 kts 170°
2026-04-23 14:18 -1.83932 -48.36617 11721 ft 324 kts 170°
2026-04-23 14:18 -1.86124 -48.36072 12096 ft 326 kts 170°
2026-04-23 14:18 -1.88328 -48.35523 12472 ft 328 kts 170°
2026-04-23 14:18 -1.90545 -48.34971 12847 ft 330 kts 170°
2026-04-23 14:19 -1.92773 -48.34417 13222 ft 332 kts 170°
2026-04-23 14:19 -1.95016 -48.33859 13598 ft 334 kts 170°
2026-04-23 14:19 -1.97270 -48.33299 13973 ft 335 kts 170°
2026-04-23 14:19 -1.99538 -48.32743 14347 ft 337 kts 171°
2026-04-23 14:20 -2.01845 -48.32392 14723 ft 336 kts 178°
2026-04-23 14:20 -2.04173 -48.32243 15101 ft 336 kts 182°
2026-04-23 14:20 -2.06512 -48.32208 15478 ft 337 kts 184°
2026-04-23 14:20 -2.08860 -48.32239 15854 ft 339 kts 185°
2026-04-23 14:21 -2.11216 -48.32310 16229 ft 340 kts 186°
2026-04-23 14:21 -2.13584 -48.32404 16604 ft 342 kts 186°
2026-04-23 14:21 -2.15965 -48.32512 16980 ft 344 kts 187°
2026-04-23 14:21 -2.18354 -48.32630 17355 ft 346 kts 187°
2026-04-23 14:22 -2.20759 -48.32754 17730 ft 348 kts 187°
2026-04-23 14:22 -2.23175 -48.32882 18105 ft 350 kts 187°
2026-04-23 14:22 -2.25606 -48.33013 18481 ft 351 kts 187°
2026-04-23 14:22 -2.28049 -48.33147 18856 ft 353 kts 187°
2026-04-23 14:23 -2.30506 -48.33282 19231 ft 355 kts 187°
2026-04-23 14:23 -2.32978 -48.33419 19607 ft 357 kts 187°
2026-04-23 14:23 -2.35465 -48.33557 19982 ft 359 kts 187°
2026-04-23 14:23 -2.37963 -48.33696 20358 ft 361 kts 187°
2026-04-23 14:24 -2.40474 -48.33836 20733 ft 363 kts 187°
2026-04-23 14:24 -2.43000 -48.33978 21108 ft 365 kts 187°
2026-04-23 14:24 -2.45539 -48.34120 21483 ft 367 kts 187°
2026-04-23 14:24 -2.48093 -48.34263 21859 ft 369 kts 187°
2026-04-23 14:25 -2.50661 -48.34407 22234 ft 372 kts 187°
2026-04-23 14:25 -2.53245 -48.34552 22610 ft 374 kts 187°
2026-04-23 14:25 -2.55842 -48.34698 22985 ft 376 kts 187°
2026-04-23 14:25 -2.58454 -48.34845 23361 ft 378 kts 187°
2026-04-23 14:26 -2.61082 -48.34992 23736 ft 380 kts 187°
2026-04-23 14:26 -2.63724 -48.35141 24112 ft 382 kts 187°
2026-04-23 14:26 -2.66383 -48.35290 24487 ft 384 kts 187°
2026-04-23 14:26 -2.69054 -48.35440 24863 ft 387 kts 187°
2026-04-23 14:27 -2.71743 -48.35592 25238 ft 389 kts 187°
2026-04-23 14:27 -2.74446 -48.35744 25614 ft 391 kts 187°
2026-04-23 14:27 -2.77166 -48.35897 25989 ft 393 kts 187°
2026-04-23 14:27 -2.79901 -48.36050 26364 ft 396 kts 187°
2026-04-23 14:28 -2.82654 -48.36205 26740 ft 398 kts 187°
2026-04-23 14:28 -2.85419 -48.36361 27115 ft 400 kts 187°
2026-04-23 14:28 -2.88202 -48.36517 27491 ft 403 kts 187°
2026-04-23 14:28 -2.91001 -48.36674 27866 ft 405 kts 187°
2026-04-23 14:29 -2.93818 -48.36833 28242 ft 407 kts 187°
2026-04-23 14:29 -2.96645 -48.36992 28617 ft 409 kts 187°
2026-04-23 14:29 -2.99486 -48.37151 28992 ft 411 kts 186°
2026-04-23 14:29 -3.02343 -48.37312 29368 ft 413 kts 186°
2026-04-23 14:30 -3.05216 -48.37474 29743 ft 415 kts 186°
2026-04-23 14:30 -3.08103 -48.37636 30118 ft 418 kts 186°
2026-04-23 14:30 -3.11004 -48.37799 30493 ft 420 kts 186°
2026-04-23 14:30 -3.13926 -48.37964 30869 ft 422 kts 186°
2026-04-23 14:31 -3.16861 -48.38129 31244 ft 425 kts 186°
2026-04-23 14:31 -3.19814 -48.38295 31620 ft 427 kts 186°
2026-04-23 14:31 -3.22782 -48.38462 31995 ft 430 kts 186°
2026-04-23 14:31 -3.25769 -48.38630 32370 ft 432 kts 186°
2026-04-23 14:32 -3.28769 -48.38799 32745 ft 434 kts 186°
2026-04-23 14:32 -3.31783 -48.38968 33120 ft 435 kts 186°
2026-04-23 14:32 -3.34805 -48.39138 33495 ft 437 kts 186°
2026-04-23 14:32 -3.37840 -48.39308 33870 ft 438 kts 186°
2026-04-23 14:33 -3.40872 -48.39478 34244 ft 438 kts 186°
2026-04-23 14:33 -3.43914 -48.39649 34618 ft 439 kts 186°
2026-04-23 14:33 -3.46956 -48.39819 34992 ft 439 kts 186°
2026-04-23 14:33 -3.49997 -48.39989 35365 ft 439 kts 186°
2026-04-23 14:34 -3.53042 -48.40160 35738 ft 439 kts 186°
2026-04-23 14:34 -3.56103 -48.40332 35865 ft 445 kts 186°
2026-04-23 14:34 -3.62362 -48.40689 35992 ft 459 kts 186°
2026-04-23 14:35 -3.68824 -48.41058 35998 ft 471 kts 186°
2026-04-23 14:35 -3.75391 -48.41430 35996 ft 474 kts 186°
2026-04-23 14:36 -3.81938 -48.41795 35995 ft 469 kts 186°
2026-04-23 14:36 -3.88386 -48.42152 35995 ft 462 kts 186°
2026-04-23 14:37 -3.94770 -48.42506 35995 ft 458 kts 186°
2026-04-23 14:37 -4.01115 -48.42860 35995 ft 457 kts 186°
2026-04-23 14:38 -4.07402 -48.43213 35996 ft 456 kts 186°
2026-04-23 14:38 -4.13658 -48.43566 35996 ft 456 kts 186°
2026-04-23 14:39 -4.19979 -48.43922 35996 ft 456 kts 186°
2026-04-23 14:39 -4.26298 -48.44279 35996 ft 456 kts 186°
2026-04-23 14:40 -4.32618 -48.44636 35996 ft 456 kts 186°
2026-04-23 14:40 -4.38936 -48.44992 35996 ft 456 kts 186°
2026-04-23 14:41 -4.45257 -48.45349 35996 ft 456 kts 186°
2026-04-23 14:41 -4.51571 -48.45706 35996 ft 456 kts 186°
2026-04-23 14:42 -4.57894 -48.46062 35996 ft 456 kts 186°
2026-04-23 14:42 -4.64218 -48.46419 35996 ft 456 kts 186°
2026-04-23 14:43 -4.70540 -48.46776 35996 ft 456 kts 186°
2026-04-23 14:43 -4.76859 -48.47133 35996 ft 456 kts 186°
2026-04-23 14:44 -4.83179 -48.47490 35996 ft 456 kts 186°
2026-04-23 14:44 -4.89498 -48.47847 35996 ft 456 kts 186°
2026-04-23 14:45 -4.95821 -48.48204 35996 ft 456 kts 186°
2026-04-23 14:45 -5.02140 -48.48561 35996 ft 456 kts 186°
2026-04-23 14:46 -5.08460 -48.48918 35996 ft 456 kts 186°
2026-04-23 14:46 -5.14778 -48.49275 35996 ft 456 kts 186°
2026-04-23 14:47 -5.21099 -48.49633 35996 ft 456 kts 186°
2026-04-23 14:47 -5.27416 -48.49990 35996 ft 456 kts 186°
2026-04-23 14:48 -5.33738 -48.50347 35996 ft 456 kts 186°
2026-04-23 14:48 -5.40055 -48.50705 35996 ft 456 kts 186°
2026-04-23 14:49 -5.46376 -48.51062 35996 ft 456 kts 186°
2026-04-23 14:49 -5.52693 -48.51420 35996 ft 456 kts 186°
2026-04-23 14:50 -5.59014 -48.51778 35996 ft 456 kts 186°
2026-04-23 14:50 -5.65333 -48.52135 35996 ft 456 kts 186°
2026-04-23 14:51 -5.71652 -48.52493 35996 ft 456 kts 186°
2026-04-23 14:51 -5.77971 -48.52851 35996 ft 456 kts 186°
2026-04-23 14:52 -5.84288 -48.53209 35996 ft 456 kts 186°
2026-04-23 14:52 -5.90608 -48.53567 35996 ft 456 kts 186°
2026-04-23 14:53 -5.96928 -48.53925 35996 ft 456 kts 186°
2026-04-23 14:53 -6.03243 -48.54283 35996 ft 456 kts 186°
2026-04-23 14:54 -6.09565 -48.54642 35996 ft 456 kts 186°
2026-04-23 14:54 -6.15886 -48.55000 35996 ft 456 kts 186°
2026-04-23 14:55 -6.22204 -48.55359 35996 ft 456 kts 186°
2026-04-23 14:55 -6.28524 -48.55717 35996 ft 456 kts 186°
2026-04-23 14:56 -6.34844 -48.56076 35996 ft 456 kts 186°
2026-04-23 14:56 -6.41163 -48.56435 35996 ft 456 kts 186°
2026-04-23 14:57 -6.47482 -48.56794 35996 ft 456 kts 186°
2026-04-23 14:57 -6.53803 -48.57153 35996 ft 456 kts 186°
2026-04-23 14:58 -6.60121 -48.57512 35996 ft 456 kts 186°
2026-04-23 14:58 -6.66440 -48.57871 35996 ft 456 kts 186°
2026-04-23 14:59 -6.72759 -48.58230 35996 ft 456 kts 186°
2026-04-23 14:59 -6.79078 -48.58589 35996 ft 456 kts 186°
2026-04-23 15:00 -6.85396 -48.58949 35996 ft 456 kts 186°
2026-04-23 15:00 -6.91715 -48.59308 35996 ft 456 kts 186°
2026-04-23 15:01 -6.98035 -48.59668 35996 ft 456 kts 186°
2026-04-23 15:01 -7.04353 -48.60027 35996 ft 456 kts 186°
2026-04-23 15:02 -7.10673 -48.60387 35996 ft 456 kts 186°
2026-04-23 15:02 -7.16993 -48.60747 35996 ft 456 kts 186°
2026-04-23 15:03 -7.23310 -48.61107 35996 ft 456 kts 186°
2026-04-23 15:03 -7.29631 -48.61467 35996 ft 456 kts 186°
2026-04-23 15:04 -7.35948 -48.61827 35996 ft 456 kts 186°
2026-04-23 15:04 -7.42267 -48.62187 35996 ft 456 kts 186°
2026-04-23 15:05 -7.48585 -48.62548 35996 ft 456 kts 186°
2026-04-23 15:05 -7.54906 -48.62908 35996 ft 456 kts 186°
2026-04-23 15:06 -7.61224 -48.63269 35996 ft 456 kts 186°
2026-04-23 15:06 -7.67543 -48.63630 35996 ft 456 kts 186°
2026-04-23 15:07 -7.73862 -48.63990 35996 ft 456 kts 186°
2026-04-23 15:07 -7.80180 -48.64351 35996 ft 456 kts 186°
2026-04-23 15:08 -7.86499 -48.64712 35996 ft 456 kts 186°
2026-04-23 15:09 -7.95977 -48.65254 35996 ft 456 kts 186°
2026-04-23 15:09 -8.02296 -48.65615 35996 ft 456 kts 186°
2026-04-23 15:10 -8.07560 -48.65916 35996 ft 456 kts 186°
2026-04-23 15:10 -8.14933 -48.66338 35996 ft 456 kts 186°
2026-04-23 15:11 -8.21251 -48.66700 35996 ft 456 kts 186°
2026-04-23 15:11 -8.27570 -48.67062 35996 ft 456 kts 186°
2026-04-23 15:12 -8.33890 -48.67424 35996 ft 456 kts 186°
2026-04-23 15:12 -8.40206 -48.67785 35996 ft 456 kts 186°
2026-04-23 15:13 -8.46527 -48.68148 35996 ft 456 kts 186°
2026-04-23 15:13 -8.52846 -48.68510 35996 ft 456 kts 186°
2026-04-23 15:14 -8.59162 -48.68872 35996 ft 456 kts 186°
2026-04-23 15:14 -8.65483 -48.69235 35996 ft 456 kts 186°
2026-04-23 15:15 -8.71801 -48.69597 35996 ft 456 kts 186°
2026-04-23 15:15 -8.78119 -48.69960 35996 ft 456 kts 186°
2026-04-23 15:16 -8.84439 -48.70323 35996 ft 456 kts 186°
2026-04-23 15:16 -8.90757 -48.70686 35996 ft 456 kts 186°
2026-04-23 15:17 -8.97075 -48.71049 35996 ft 456 kts 186°
2026-04-23 15:17 -9.03394 -48.71412 35996 ft 456 kts 186°
2026-04-23 15:18 -9.09712 -48.71775 35996 ft 456 kts 186°
2026-04-23 15:18 -9.16031 -48.72139 35996 ft 456 kts 186°
2026-04-23 15:19 -9.22350 -48.72502 35996 ft 456 kts 186°
2026-04-23 15:19 -9.28667 -48.72866 35996 ft 456 kts 186°
2026-04-23 15:20 -9.33932 -48.73169 35996 ft 456 kts 186°
2026-04-23 15:20 -9.41305 -48.73594 35996 ft 456 kts 186°
2026-04-23 15:21 -9.47624 -48.73958 35996 ft 456 kts 186°
2026-04-23 15:21 -9.53940 -48.74322 35996 ft 456 kts 186°
2026-04-23 15:22 -9.60261 -48.74686 35996 ft 456 kts 186°
2026-04-23 15:22 -9.66577 -48.75051 35996 ft 456 kts 186°
2026-04-23 15:23 -9.72895 -48.75416 35996 ft 456 kts 186°
2026-04-23 15:23 -9.79213 -48.75780 35996 ft 456 kts 186°
2026-04-23 15:24 -9.85534 -48.76145 35996 ft 456 kts 186°
2026-04-23 15:24 -9.91852 -48.76510 35996 ft 456 kts 186°
2026-04-23 15:25 -9.98169 -48.76875 35996 ft 456 kts 186°
2026-04-23 15:25 -10.04487 -48.77241 35996 ft 456 kts 186°
2026-04-23 15:26 -10.10806 -48.77606 35996 ft 456 kts 186°
2026-04-23 15:26 -10.17123 -48.77972 35996 ft 456 kts 186°
2026-04-23 15:27 -10.23443 -48.78338 35996 ft 456 kts 186°
2026-04-23 15:27 -10.29760 -48.78704 35996 ft 456 kts 186°
2026-04-23 15:28 -10.36077 -48.79070 35996 ft 456 kts 186°
2026-04-23 15:28 -10.42397 -48.79436 35996 ft 456 kts 186°
2026-04-23 15:29 -10.48717 -48.79802 35996 ft 456 kts 186°
2026-04-23 15:29 -10.55033 -48.80169 35996 ft 456 kts 186°
2026-04-23 15:30 -10.61352 -48.80535 35996 ft 456 kts 186°
2026-04-23 15:30 -10.67670 -48.80902 35996 ft 456 kts 186°
2026-04-23 15:31 -10.73989 -48.81269 35996 ft 456 kts 186°
2026-04-23 15:31 -10.80305 -48.81636 35996 ft 456 kts 186°
2026-04-23 15:32 -10.86625 -48.82004 35996 ft 456 kts 186°
2026-04-23 15:32 -10.92943 -48.82371 35996 ft 456 kts 186°
2026-04-23 15:33 -10.99261 -48.82739 35996 ft 456 kts 186°
2026-04-23 15:33 -11.05578 -48.83106 35996 ft 456 kts 186°
2026-04-23 15:34 -11.11897 -48.83474 35996 ft 456 kts 186°
2026-04-23 15:34 -11.18213 -48.83842 35996 ft 456 kts 186°
2026-04-23 15:35 -11.24533 -48.84210 35996 ft 456 kts 186°
2026-04-23 15:35 -11.30850 -48.84579 35996 ft 456 kts 186°
2026-04-23 15:36 -11.37169 -48.84947 35996 ft 456 kts 186°
2026-04-23 15:36 -11.43486 -48.85316 35996 ft 456 kts 186°
2026-04-23 15:37 -11.49804 -48.85685 35996 ft 456 kts 186°
2026-04-23 15:37 -11.55069 -48.85992 35996 ft 456 kts 186°
2026-04-23 15:38 -11.62441 -48.86423 35996 ft 456 kts 186°
2026-04-23 15:38 -11.68759 -48.86792 35996 ft 456 kts 186°
2026-04-23 15:39 -11.75077 -48.87162 35996 ft 456 kts 186°
2026-04-23 15:39 -11.81394 -48.87532 35996 ft 456 kts 186°
2026-04-23 15:40 -11.87712 -48.87901 35996 ft 456 kts 186°
2026-04-23 15:40 -11.94030 -48.88271 35996 ft 456 kts 186°
2026-04-23 15:41 -12.00346 -48.88642 35996 ft 456 kts 186°
2026-04-23 15:41 -12.06664 -48.89012 35996 ft 456 kts 186°
2026-04-23 15:42 -12.12982 -48.89382 35996 ft 456 kts 186°
2026-04-23 15:42 -12.19301 -48.89753 35996 ft 456 kts 186°
2026-04-23 15:43 -12.25618 -48.90124 35996 ft 456 kts 186°
2026-04-23 15:43 -12.31935 -48.90495 35996 ft 456 kts 186°
2026-04-23 15:44 -12.38254 -48.90866 35996 ft 456 kts 186°
2026-04-23 15:44 -12.44572 -48.91238 35996 ft 456 kts 186°
2026-04-23 15:45 -12.50890 -48.91610 35996 ft 456 kts 186°
2026-04-23 15:45 -12.57207 -48.91981 35996 ft 456 kts 186°
2026-04-23 15:46 -12.63525 -48.92353 35996 ft 456 kts 186°
2026-04-23 15:46 -12.69843 -48.92725 35996 ft 456 kts 186°
2026-04-23 15:47 -12.76159 -48.93098 35996 ft 456 kts 186°
2026-04-23 15:47 -12.82479 -48.93470 35996 ft 456 kts 186°
2026-04-23 15:48 -12.88796 -48.93843 35996 ft 456 kts 186°
2026-04-23 15:48 -12.95113 -48.94216 35996 ft 456 kts 186°
2026-04-23 15:49 -13.01430 -48.94589 35996 ft 456 kts 186°
2026-04-23 15:49 -13.07751 -48.94963 35996 ft 456 kts 186°
2026-04-23 15:50 -13.14070 -48.95336 35996 ft 456 kts 186°
2026-04-23 15:50 -13.20389 -48.95710 35996 ft 456 kts 186°
2026-04-23 15:51 -13.26708 -48.96084 35996 ft 456 kts 186°
2026-04-23 15:51 -13.33023 -48.96458 35996 ft 456 kts 186°
2026-04-23 15:52 -13.39342 -48.96832 35996 ft 456 kts 186°
2026-04-23 15:52 -13.45661 -48.97207 35996 ft 456 kts 186°
2026-04-23 15:53 -13.51977 -48.97581 35996 ft 456 kts 186°
2026-04-23 15:53 -13.58293 -48.97956 35996 ft 456 kts 186°
2026-04-23 15:54 -13.64612 -48.98331 35996 ft 456 kts 186°
2026-04-23 15:54 -13.70930 -48.98706 35996 ft 456 kts 186°
2026-04-23 15:55 -13.77247 -48.99082 35996 ft 456 kts 186°
2026-04-23 15:55 -13.83563 -48.99457 35996 ft 456 kts 186°
2026-04-23 15:56 -13.89883 -48.99833 35996 ft 456 kts 186°
2026-04-23 15:56 -13.96198 -49.00209 35996 ft 456 kts 186°
2026-04-23 15:57 -14.02517 -49.00586 35996 ft 456 kts 186°
2026-04-23 15:57 -14.08833 -49.00962 35996 ft 456 kts 186°
2026-04-23 15:58 -14.15151 -49.01339 35996 ft 456 kts 186°
2026-04-23 15:58 -14.21468 -49.01715 35996 ft 456 kts 186°
2026-04-23 15:59 -14.27785 -49.02093 35996 ft 456 kts 186°
2026-04-23 15:59 -14.34101 -49.02470 35996 ft 456 kts 186°
2026-04-23 16:00 -14.40420 -49.02847 35996 ft 456 kts 186°
2026-04-23 16:00 -14.46736 -49.03225 35996 ft 456 kts 186°
2026-04-23 16:01 -14.53055 -49.03603 35996 ft 456 kts 186°
2026-04-23 16:01 -14.59377 -49.03982 35858 ft 459 kts 186°
2026-04-23 16:01 -14.62570 -49.04174 35468 ft 460 kts 186°
2026-04-23 16:02 -14.65740 -49.04364 34998 ft 454 kts 186°
2026-04-23 16:02 -14.68859 -49.04548 34502 ft 446 kts 186°
2026-04-23 16:02 -14.71921 -49.04728 34001 ft 437 kts 186°
2026-04-23 16:02 -14.74930 -49.04904 33498 ft 430 kts 186°
2026-04-23 16:03 -14.77883 -49.05077 32997 ft 423 kts 186°
2026-04-23 16:03 -14.80793 -49.05249 32496 ft 417 kts 187°
2026-04-23 16:03 -14.83665 -49.05420 31995 ft 412 kts 187°
2026-04-23 16:03 -14.86508 -49.05589 31494 ft 408 kts 187°
2026-04-23 16:04 -14.89317 -49.05758 30994 ft 404 kts 187°
2026-04-23 16:04 -14.92102 -49.05925 30494 ft 400 kts 187°
2026-04-23 16:04 -14.94864 -49.06092 29994 ft 397 kts 187°
2026-04-23 16:04 -14.97602 -49.06257 29494 ft 393 kts 187°
2026-04-23 16:05 -14.99415 -49.06366 29161 ft 391 kts 187°
2026-04-23 16:05 -15.03011 -49.06584 28494 ft 387 kts 187°
2026-04-23 16:05 -15.05683 -49.06745 27994 ft 384 kts 187°
2026-04-23 16:05 -15.08332 -49.06905 27495 ft 381 kts 187°
2026-04-23 16:06 -15.10960 -49.07064 26995 ft 377 kts 187°
2026-04-23 16:06 -15.13566 -49.07221 26495 ft 374 kts 187°
2026-04-23 16:06 -15.16149 -49.07377 25995 ft 371 kts 187°
2026-04-23 16:06 -15.18711 -49.07532 25495 ft 368 kts 187°
2026-04-23 16:07 -15.21256 -49.07685 24995 ft 365 kts 187°
2026-04-23 16:07 -15.23773 -49.07837 24495 ft 362 kts 187°
2026-04-23 16:07 -15.26273 -49.07988 23995 ft 359 kts 187°
2026-04-23 16:07 -15.28752 -49.08138 23496 ft 356 kts 187°
2026-04-23 16:08 -15.31207 -49.08286 22997 ft 353 kts 187°
2026-04-23 16:08 -15.33654 -49.08434 22496 ft 350 kts 187°
2026-04-23 16:08 -15.36073 -49.08580 21996 ft 348 kts 187°
2026-04-23 16:08 -15.38475 -49.08725 21497 ft 345 kts 187°
2026-04-23 16:09 -15.40856 -49.08869 20997 ft 342 kts 187°
2026-04-23 16:09 -15.43217 -49.09012 20498 ft 339 kts 187°
2026-04-23 16:09 -15.45560 -49.09154 19998 ft 337 kts 187°
2026-04-23 16:09 -15.47884 -49.09294 19498 ft 334 kts 187°
2026-04-23 16:10 -15.50189 -49.09434 18999 ft 331 kts 187°
2026-04-23 16:10 -15.52475 -49.09572 18500 ft 329 kts 187°
2026-04-23 16:10 -15.54745 -49.09709 18000 ft 326 kts 187°
2026-04-23 16:10 -15.56995 -49.09846 17500 ft 323 kts 187°
2026-04-23 16:11 -15.59228 -49.09981 17001 ft 321 kts 187°
2026-04-23 16:11 -15.61443 -49.10115 16502 ft 318 kts 187°
2026-04-23 16:11 -15.63641 -49.10249 16002 ft 316 kts 187°
2026-04-23 16:11 -15.65823 -49.10381 15502 ft 313 kts 187°
2026-04-23 16:12 -15.67987 -49.10512 15003 ft 311 kts 187°
2026-04-23 16:12 -15.70136 -49.10642 14503 ft 309 kts 187°
2026-04-23 16:12 -15.72266 -49.10771 14004 ft 306 kts 187°
2026-04-23 16:12 -15.74380 -49.10900 13505 ft 304 kts 187°
2026-04-23 16:13 -15.76479 -49.11027 13005 ft 302 kts 187°
2026-04-23 16:13 -15.80629 -49.11279 12006 ft 297 kts 187°
2026-04-23 16:13 -15.82678 -49.11403 11506 ft 295 kts 187°
2026-04-23 16:14 -15.84714 -49.11527 11007 ft 292 kts 187°
2026-04-23 16:14 -15.86733 -49.11649 10508 ft 290 kts 187°
2026-04-23 16:14 -15.88733 -49.11770 10118 ft 284 kts 187°
2026-04-23 16:14 -15.90669 -49.11885 10030 ft 276 kts 187°
2026-04-23 16:15 -15.92577 -49.12000 10005 ft 276 kts 187°
2026-04-23 16:15 -15.94495 -49.12118 9999 ft 277 kts 188°
2026-04-23 16:15 -15.96425 -49.12238 9998 ft 280 kts 188°
2026-04-23 16:15 -15.98368 -49.12358 9997 ft 281 kts 187°
2026-04-23 16:16 -16.00321 -49.12479 9997 ft 282 kts 187°
2026-04-23 16:16 -16.02277 -49.12598 9996 ft 282 kts 187°
2026-04-23 16:16 -16.04236 -49.12718 9996 ft 283 kts 187°
2026-04-23 16:16 -16.06196 -49.12837 9999 ft 283 kts 187°
2026-04-23 16:17 -16.08157 -49.12956 10000 ft 283 kts 187°
2026-04-23 16:17 -16.10118 -49.13075 10000 ft 283 kts 187°
2026-04-23 16:17 -16.12110 -49.13198 9664 ft 290 kts 187°
2026-04-23 16:17 -16.14088 -49.13317 9281 ft 280 kts 187°
2026-04-23 16:18 -16.16002 -49.13429 8897 ft 272 kts 187°
2026-04-23 16:18 -16.17857 -49.13538 8513 ft 264 kts 187°
2026-04-23 16:18 -16.19664 -49.13646 8129 ft 257 kts 188°
2026-04-23 16:18 -16.21425 -49.13752 7746 ft 251 kts 188°
2026-04-23 16:19 -16.23146 -49.13858 7363 ft 246 kts 188°
2026-04-23 16:19 -16.24831 -49.13962 6980 ft 241 kts 188°
2026-04-23 16:19 -16.26461 -49.14180 6593 ft 233 kts 196°
2026-04-23 16:19 -16.27983 -49.14665 6214 ft 226 kts 205°
2026-04-23 16:20 -16.29358 -49.15323 6088 ft 211 kts 211°
2026-04-23 16:20 -16.30611 -49.16065 6023 ft 205 kts 215°
2026-04-23 16:20 -16.31806 -49.16862 6006 ft 205 kts 217°
2026-04-23 16:20 -16.33100 -49.17520 5951 ft 215 kts 196°
2026-04-23 16:21 -16.34560 -49.17268 5998 ft 221 kts 157°
2026-04-23 16:21 -16.35614 -49.16106 6001 ft 227 kts 118°
2026-04-23 16:21 -16.35944 -49.14510 6044 ft 228 kts 95°
2026-04-23 16:21 -16.36007 -49.12871 6009 ft 225 kts 91°
2026-04-23 16:22 -16.36108 -49.11274 6003 ft 219 kts 95°
2026-04-23 16:22 -16.36310 -49.09722 5998 ft 213 kts 95°
2026-04-23 16:22 -16.35996 -49.08309 5982 ft 193 kts 61°
2026-04-23 16:22 -16.35245 -49.07183 6012 ft 188 kts 48°
2026-04-23 16:23 -16.34425 -49.06158 6027 ft 178 kts 44°
2026-04-23 16:23 -16.33559 -49.05269 5991 ft 172 kts 37°
2026-04-23 16:23 -16.32646 -49.04496 5893 ft 172 kts 33°
2026-04-23 16:23 -16.31673 -49.03768 5555 ft 170 kts 31°
2026-04-23 16:24 -16.30731 -49.03084 5303 ft 161 kts 31°
2026-04-23 16:24 -16.29848 -49.02411 5101 ft 155 kts 33°
2026-04-23 16:24 -16.29013 -49.01730 4938 ft 151 kts 35°
2026-04-23 16:24 -16.28205 -49.01042 4794 ft 150 kts 36°
2026-04-23 16:25 -16.27403 -49.00351 4641 ft 150 kts 37°
2026-04-23 16:25 -16.26597 -48.99663 4462 ft 150 kts 37°
2026-04-23 16:25 -16.25782 -48.98975 4263 ft 151 kts 37°
2026-04-23 16:25 -16.24967 -48.98287 4048 ft 153 kts 38°
2026-04-23 16:26 -16.24147 -48.97590 3851 ft 153 kts 39°
2026-04-23 16:26 -16.23364 -48.96927 3743 ft 129 kts 39°
2026-04-23 16:26 -16.22792 -48.96444 3743 ft 77 kts 39°
2026-04-23 16:26 -16.22534 -48.96227 3743 ft 36 kts 39°
2026-04-23 16:27 -16.22373 -48.96090 3743 ft 24 kts 39°
2026-04-23 16:27 -16.22271 -48.96002 3743 ft 15 kts 39°
2026-04-23 16:27 -16.22221 -48.95939 3743 ft 8 kts 80°
2026-04-23 16:27 -16.22220 -48.95903 3743 ft 2 kts 95°
2026-04-23 16:28 -16.22235 -48.95888 3743 ft 3 kts 168°
2026-04-23 16:28 -16.22281 -48.95887 3743 ft 0 kts 186°
2026-04-23 16:28 -16.22289 -48.95888 3743 ft 7 kts 186°
2026-04-23 16:28 -16.22388 -48.95903 3743 ft 16 kts 189°
2026-04-23 16:29 -16.22474 -48.95933 3743 ft 17 kts 212°
2026-04-23 16:29 -16.22603 -48.96042 3743 ft 31 kts 219°
2026-04-23 16:29 -16.22790 -48.96200 3743 ft 32 kts 219°
2026-04-23 16:29 -16.22934 -48.96322 3743 ft 21 kts 218°
2026-04-23 16:30 -16.23020 -48.96393 3743 ft 10 kts 219°
2026-04-23 16:30 -16.23050 -48.96418 3743 ft 3 kts 219°
2026-04-23 16:30 -16.23062 -48.96429 3743 ft 2 kts 219°
2026-04-23 16:30 -16.23090 -48.96453 3743 ft 9 kts 220°
2026-04-23 16:31 -16.23152 -48.96507 3743 ft 14 kts 220°
2026-04-23 16:31 -16.23230 -48.96573 3743 ft 16 kts 219°
2026-04-23 16:31 -16.23316 -48.96645 3743 ft 17 kts 219°
2026-04-23 16:31 -16.23398 -48.96695 3743 ft 12 kts 178°
2026-04-23 16:32 -16.23444 -48.96654 3743 ft 6 kts 128°
2026-04-23 16:32 -16.23466 -48.96612 3743 ft 3 kts 87°
2026-04-23 16:32 -16.23446 -48.96587 3743 ft 6 kts 39°
2026-04-23 16:32 -16.23415 -48.96561 3743 ft 6 kts 38°
2026-04-23 16:33 -16.23389 -48.96532 3743 ft 5 kts 77°
2026-04-23 16:33 -16.23397 -48.96502 3743 ft 4 kts 125°
2026-04-23 16:33 -16.23400 -48.96499 3743 ft 0 kts 124°